KHYX

Details ICAO KHYX
Name Saginaw Co H W Browne
Region United States
Timezone America/Detroit (UTC-4.0)
Plans Departing 3
Arriving 5
Stats Elevation 601 ft / 183 m (AMSL)
Location 43.433192° -83.862452°
Runways 2
Magnetic Variation 7.185° W
Sunrise 2018-05-27 10:02:00 UTC / 2018-05-27 06:02:00 Local
Sunset 2018-05-28 01:06:09 UTC / 2018-05-27 21:06:09 Local
Advertisement - Login to hide

Runways

ID Width Length Bearing (true) Bearing (mag) Surface Threshold Offset Overrun Length
05 59 ft / 18 m 2,954 ft / 900 m 44.40° 51.58° Asphalt 121 ft / 37 m 0 ft / 0 m
09 98 ft / 30 m 5,005 ft / 1,525 m 89.89° 97.07° Asphalt 0 ft / 0 m 151 ft / 46 m
23 59 ft / 18 m 2,954 ft / 900 m 224.40° 231.58° Asphalt 131 ft / 40 m 0 ft / 0 m
27 98 ft / 30 m 5,005 ft / 1,525 m 269.91° 277.09° Asphalt 0 ft / 0 m 0 ft / 0 m

Map

Weather


0- 5 10 15 20 25 30 35+ Temperature / ° C

Clouds and Precipitation
Forecast for 2018-05-27 12:00 UTC. Updated an hour ago

Ground ~20,000 ft ~40,000 ft Winds

METAR

KHYX 271215Z AUTO 31007KT 7SM -RA SCT026 SCT036 SCT047 18/17 A2987 RMK AO2

TAF

Not found

Frequencies

Recorded 118.32 MHz AWOS 3
Approach 120.95 MHz APP/DEP
Unicom 122.80 MHz CTAF/UNICOM
Warning: Do not use this data for real-world aviation or navigation. No guarantee of current accuracy is given.